ステファン-オテルマ彗星

38P/Stephan-Oterma (2018)

English version
Home page
Updated on September 7, 2017

---------------------------------------------------------------------

・ プロフィール

・ 軌道要素

Epoch 2018 Nov. 18.0 TT = JDT 2458440.5
T 2018 Nov. 10.97151 TT                                 Kobayashi
q   1.5885872            (2000.0)            P               Q
n   0.02596827     Peri.  359.58109     +0.21469979     -0.92684769
a  11.2938160      Node    77.99966     +0.89699971     +0.06236927
e   0.8593401      Incl.   18.35298     +0.38638779     +0.37022080
P  38.0
From 258 observations 1867 Jan. 25-1981 Apr. 4, mean residual 1".2.
     Nongravitational parameters A1 = +0.31, A2 = -0.0032.

・ 星図

・ 光度変化

        H = 14.0  G = 0.15               [    ,-200]  (              〜2018年 4月24日)
        m1 = 3.5 + 5 logΔ + 30.0 log r  [-200, 200]  (2018年 4月24日〜2019年 5月29日)
        H = 14.0  G = 0.15               [ 200,    ]  (2019年 5月29日〜              )

---------------------------------------------------------------------

軌道要素はM.P.E.C. 2015-M77に掲載されたものです。
星図はステラナビゲータ Ver.8 (アストロアーツ) で作成したものです。
光度グラフはComet for Windowsで作成したものです。

---------------------------------------------------------------------

Copyright(C) Seiichi Yoshida (comet@aerith.net). All rights reserved.